Location: DARK SKY Beskydy - Park tmavé oblohy, www.darkskybeskydy.cz
(49.4926°N, 18.5016°E)
Time: 04:07:19
(UTC+01:00)

N. Korean satellite - Pass Details

Date: 11 December 2022
Orbit: 407 x 441 km, 97.3° (Epoch: 05 February)

Event Time Altitude Azimuth Distance (km) Brightness Sun altitude
Rises 04:30:48 0° 23° (NNE) 2,497 10.4 -28.2°
Reaches altitude 10° 04:33:06 10° 36° (NE) 1,608 9.5 -27.8°
Maximum altitude 04:36:04 26° 95° (E) 930 8.6 -27.3°
Drops below altitude 10° 04:38:56 10° 154° (SSE) 1,568 9.5 -26.9°
Sets 04:41:09 0° 167° (SSE) 2,421 10.3 -26.5°
